Location: Newark
(41.7772°N, 74.7403°W)
Time: 13:06:24
(UTC+00:00)

Transit 4A - Pass Details

Date: 29 May 2020
Orbit: 866 x 978 km, 66.8° (Epoch: 06 July)

Event Time Altitude Azimuth Distance (km) Brightness Sun altitude
Exits shadow 05:19:31 14° 107° (ESE) 2,213 9.8 -26.3°
Maximum altitude 05:19:53 14° 102° (ESE) 2,210 9.8 -26.3°
Drops below altitude 10° 05:22:52 10° 71° (ENE) 2,529 10.5 -26.2°
Sets 05:26:33 0° 48° (NE) 3,490 11.6 -26.1°
